H1 CPF 2 NER 2022 9 6 9 249 01 glonass140 H2 1903001 9140 44299 2022 9 6 0 0 0 2022 9 9 23 45 0 900 1 1 0 0 0 1 H9 10 0 59828 0.00000 0 6714088.538 -13049247.275 20891623.928 10 0 59828 900.00000 0 7468827.355 -10517883.418 22034832.046 10 0 59828 1800.00000 0 8446577.086 -7941706.169 22751372.983 10 0 59828 2700.00000 0 9634091.526 -5388062.390 23027480.870 10 0 59828 3600.00000 0 11006294.915 -2921408.198 22857887.881 10 0 59828 4500.00000 0 12527197.568 -600853.419 22245918.946 10 0 59828 5400.00000 0 14151281.796 1522061.465 21203425.066 10 0 59828 6300.00000 0 15825301.430 3405265.808 19750556.635 10 0 59828 7200.00000 0 17490421.292 5017659.721 17915380.741 10 0 59828 8100.00000 0 19084609.014 6340154.753 15733349.065 10 0 59828 9000.00000 0 20545180.978 7366212.328 13246625.390 10 0 59828 9900.00000 0 21811397.455 8101858.242 10503284.405 10 0 59828 10800.00000 0 22826999.533 8565173.107 7556395.770 10 0 59828 11700.00000 0 23542582.268 8785280.079 4463009.736 10 0 59828 12600.00000 0 23917704.678 8800872.126 1283062.809 10 0 59828 13500.00000 0 23922647.588 8658340.419 -1921776.298 10 0 59828 14400.00000 0 23539744.483 8409582.316 -5089298.632 10 0 59828 15300.00000 0 22764228.020 8109581.220 -8157961.906 10 0 59828 16200.00000 0 21604554.834 7813860.546 -11068088.788 10 0 59828 17100.00000 0 20082193.016 7575919.833 -13763032.897 10 0 59828 18000.00000 0 18230879.272 7444762.097 -16190289.091 10 0 59828 18900.00000 0 16095375.132 7462618.146 -18302525.665 10 0 59828 19800.00000 0 13729772.763 7662965.455 -20058517.546 10 0 59828 20700.00000 0 11195420.279 8068926.972 -21423961.322 10 0 59828 21600.00000 0 8558552.486 8692119.237 -22372155.430 10 0 59828 22500.00000 0 5887725.714 9532000.245 -22884531.471 10 0 59828 23400.00000 0 3251163.838 10575746.194 -22951025.531 10 0 59828 24300.00000 0 714126.378 11798663.774 -22570281.734 10 0 59828 25200.00000 0 -1663591.220 13165121.821 -21749683.508 10 0 59828 26100.00000 0 -3829920.546 14629963.828 -20505211.612 10 0 59828 27000.00000 0 -5742451.850 16140342.217 -18861131.479 10 0 59828 27900.00000 0 -7369953.915 17637897.161 -16849515.914 10 0 59828 28800.00000 0 -8693419.061 19061187.730 -14509612.686 10 0 59828 29700.00000 0 -9706590.630 20348272.345 -11887069.743 10 0 59828 30600.00000 0 -10415952.284 21439328.964 -9033033.853 10 0 59828 31500.00000 0 -10840181.435 22279203.667 -6003141.166 10 0 59828 32400.00000 0 -11009092.044 22819779.463 -2856420.529 10 0 59828 33300.00000 0 -10962113.782 23022064.897 345867.944 10 0 59828 34200.00000 0 -10746374.096 22857914.190 3541435.076 10 0 59828 35100.00000 0 -10414466.516 22311306.581 6668181.126 10 0 59828 36000.00000 0 -10022001.440 21379131.504 9665406.033 10 0 59828 36900.00000 0 -9625044.375 20071447.359 12474987.268 10 0 59828 37800.00000 0 -9277550.838 18411203.990 15042502.359 10 0 59828 38700.00000 0 -9028906.568 16433441.435 17318274.716 10 0 59828 39600.00000 0 -8921676.598 14183999.385 19258323.242 10 0 59828 40500.00000 0 -8989657.426 11717791.783 20825198.601 10 0 59828 41400.00000 0 -9256313.299 9096718.566 21988691.491 10 0 59828 42300.00000 0 -9733661.304 6387301.166 22726400.802 10 0 59828 43200.00000 0 -10421651.094 3658139.043 23024152.342 10 0 59828 44100.00000 0 -11308064.601 977291.395 22876261.447 10 0 59828 45000.00000 0 -12368939.653 -1590309.128 22285635.490 10 0 59828 45900.00000 0 -13569499.954 -3985305.583 21263714.953 10 0 59828 46800.00000 0 -14865553.271 -6156129.414 19830254.378 10 0 59828 47700.00000 0 -16205300.435 -8060886.873 18012947.040 10 0 59828 48600.00000 0 -17531480.920 -9668842.715 15846899.846 10 0 59828 49500.00000 0 -18783766.809 -10961440.989 13373967.376 10 0 59828 50400.00000 0 -19901306.358 -11932821.365 10641956.606 10 0 59828 51300.00000 0 -20825311.865 -12589810.112 7703716.193 10 0 59828 52200.00000 0 -21501584.140 -12951386.285 4616126.500 10 0 59828 53100.00000 0 -21882867.929 -13047645.322 1439008.734 10 0 59828 54000.00000 0 -21930939.082 -12918303.266 -1766026.618 10 0 59828 54900.00000 0 -21618334.877 -12610804.114 -4936770.371 10 0 59828 55800.00000 0 -20929653.358 -12178109.686 -8011621.286 10 0 59828 56700.00000 0 -19862365.272 -11676265.088 -10930785.256 10 0 59828 57600.00000 0 -18427102.345 -11161842.697 -13637443.329 10 0 59828 58500.00000 0 -16647407.657 -10689373.053 -16078865.165 10 0 59828 59400.00000 0 -14558956.443 -10308872.020 -18207445.470 10 0 59828 60300.00000 0 -12208278.043 -10063569.763 -19981642.406 10 0 59828 61200.00000 0 -9651030.966 -9987938.780 -21366798.734 10 0 59828 62100.00000 0 -6949902.009 -10106105.717 -22335828.905 10 0 59828 63000.00000 0 -4172216.356 -10430715.511 -22869757.903 10 0 59828 63900.00000 0 -1387358.123 -10962297.186 -22958100.611 10 0 59828 64800.00000 0 1335891.194 -11689159.324 -22599073.718 10 0 59828 65700.00000 0 3931985.248 -12587820.633 -21799635.513 10 0 59828 66600.00000 0 6341106.265 -13623958.114 -20575352.401 10 0 59828 67500.00000 0 8511415.192 -14753833.167 -18950094.533 10 0 59828 68400.00000 0 10400964.647 -15926135.442 -16955566.404 10 0 59828 69300.00000 0 11979194.971 -17084166.218 -14630681.799 10 0 59828 70200.00000 0 13227951.506 -18168268.469 -12020795.661 10 0 59828 71100.00000 0 14141981.654 -19118400.139 -9176808.524 10 0 59828 72000.00000 0 14728892.382 -19876740.948 -6154161.935 10 0 59828 72900.00000 0 15008571.992 -20390221.681 -3011745.525 10 0 59828 73800.00000 0 15012102.804 -20612868.359 189261.786 10 0 59828 74700.00000 0 14780212.921 -20507861.765 3386592.549 10 0 59828 75600.00000 0 14361334.821 -20049225.221 6518109.091 10 0 59828 76500.00000 0 13809354.860 -19223069.595 9523014.753 10 0 59828 77400.00000 0 13181150.438 -18028343.558 12343033.920 10 0 59828 78300.00000 0 12534020.032 -16477058.219 14923537.839 10 0 59828 79200.00000 0 11923115.169 -14593977.446 17214594.745 10 0 59828 80100.00000 0 11398982.593 -12415787.583 19171924.671 10 0 59828 81000.00000 0 11005319.653 -9989781.743 20757741.704 10 0 59828 81900.00000 0 10777036.339 -7372113.678 21941468.864 10 0 59828 82800.00000 0 10738704.219 -4625693.683 22700313.400 10 0 59828 83700.00000 0 10903456.073 -1817813.164 23019692.988 10 0 59828 84600.00000 0 11272381.254 982404.861 22893506.072 10 0 59828 85500.00000 0 11834441.267 3706625.205 22324242.182 10 0 59829 0.00000 0 12566908.635 6289883.172 21322930.928 10 0 59829 900.00000 0 13436311.233 8673026.909 19908930.193 10 0 59829 1800.00000 0 14399842.102 10804916.792 18109558.748 10 0 59829 2700.00000 0 15407178.058 12644297.190 15959577.828 10 0 59829 3600.00000 0 16402631.183 14161260.907 13500531.761 10 0 59829 4500.00000 0 17327544.752 15338247.944 10779958.594 10 0 59829 5400.00000 0 18122834.228 16170537.445 7850484.588 10 0 59829 6300.00000 0 18731567.605 16666212.589 4768818.612 10 0 59829 7200.00000 0 19101477.138 16845599.783 1594664.766 10 0 59829 8100.00000 0 19187296.799 16740205.344 -1610426.693 10 0 59829 9000.00000 0 18952826.481 16391193.886 -4784248.517 10 0 59829 9900.00000 0 18372634.857 15847471.908 -7865142.782 10 0 59829 10800.00000 0 17433327.522 15163456.988 -10793200.902 10 0 59829 11700.00000 0 16134324.974 14396626.507 -13511433.667 10 0 59829 12600.00000 0 14488115.419 13604949.461 -15966887.793 10 0 59829 13500.00000 0 12519969.425 12844310.228 -18111686.587 10 0 59829 14400.00000 0 10267126.099 12166033.770 -19903973.554 10 0 59829 15300.00000 0 7777482.935 11614617.717 -21308739.667 10 0 59829 16200.00000 0 5107842.495 11225768.173 -22298517.325 10 0 59829 17100.00000 0 2321787.946 11024823.298 -22853926.715 10 0 59829 18000.00000 0 -512724.555 11025632.345 -22964063.154 10 0 59829 18900.00000 0 -3325956.598 11229938.421 -22626717.281 10 0 59829 19800.00000 0 -6049053.457 11627291.813 -21848423.285 10 0 59829 20700.00000 0 -8616673.796 12195498.025 -20644333.841 10 0 59829 21600.00000 0 -10969473.335 12901581.801 -19037923.975 10 0 59829 22500.00000 0 -13056338.662 13703226.262 -17060529.547 10 0 59829 23400.00000 0 -14836277.837 14550625.855 -14750729.559 10 0 59829 24300.00000 0 -16279889.175 15388674.035 -12153584.719 10 0 59829 25200.00000 0 -17370347.420 16159392.176 -9319747.732 10 0 59829 26100.00000 0 -18103867.165 16804495.852 -6304463.614 10 0 59829 27000.00000 0 -18489625.701 17267988.805 -3166480.593 10 0 59829 27900.00000 0 -18549150.573 17498673.855 33106.020 10 0 59829 28800.00000 0 -18315199.844 17452473.750 3232053.138 10 0 59829 29700.00000 0 -17830184.620 17094463.377 6368187.955 10 0 59829 30600.00000 0 -17144202.565 16400527.325 9380620.169 10 0 59829 31500.00000 0 -16312767.278 15358573.079 12210924.139 10 0 59829 32400.00000 0 -15394330.794 13969249.140 14804267.938 10 0 59829 33300.00000 0 -14447704.503 12246138.441 17110467.707 10 0 59829 34200.00000 0 -13529487.439 10215419.554 19084947.599 10 0 59829 35100.00000 0 -12691609.772 7915010.261 20689587.917 10 0 59829 36000.00000 0 -11979093.907 5393229.412 21893446.557 10 0 59829 36900.00000 0 -11428125.901 2707032.616 22673341.328 10 0 59829 37800.00000 0 -11064516.608 -80105.517 23014283.600 10 0 59829 38700.00000 0 -10902615.531 -2900575.868 22909756.306 10 0 59829 39600.00000 0 -10944721.564 -5685188.579 22361832.058 10 0 59829 40500.00000 0 -11181014.302 -8365792.182 21381129.795 10 0 59829 41400.00000 0 -11590008.300 -10877851.679 19986611.018 10 0 59829 42300.00000 0 -12139511.244 -13162880.658 18205219.266 10 0 59829 43200.00000 0 -12788046.360 -15170628.628 16071369.028 10 0 59829 44100.00000 0 -13486680.289 -16860934.367 13626292.860 10 0 59829 45000.00000 0 -14181180.826 -18205169.458 10917257.962 10 0 59829 45900.00000 0 -14814415.015 -19187212.708 7996665.924 10 0 59829 46800.00000 0 -15328887.806 -19803915.165 4921051.566 10 0 59829 47700.00000 0 -15669315.097 -20065036.180 1749999.097 10 0 59829 48600.00000 0 -15785123.048 -19992652.848 -1455004.437 10 0 59829 49500.00000 0 -15632767.975 -19620067.034 -4631756.843 10 0 59829 50400.00000 0 -15177778.157 -18990255.227 -7718546.751 10 0 59829 51300.00000 0 -14396430.017 -18153925.910 -10655354.421 10 0 59829 52200.00000 0 -13276986.080 -17167265.819 -13385023.704 10 0 59829 53100.00000 0 -11820440.364 -16089469.921 -15854381.642 10 0 59829 54000.00000 0 -10040737.354 -14980159.369 -18015283.229 10 0 59829 54900.00000 0 -7964452.898 -13896796.706 -19825560.133 10 0 59829 55800.00000 0 -5629948.112 -12892207.954 -21249853.955 10 0 59829 56700.00000 0 -3086029.711 -12012316.890 -22260316.981 10 0 59829 57600.00000 0 -390171.136 -11294187.890 -22837165.992 10 0 59829 58500.00000 0 2393632.315 -10764460.762 -22969077.556 10 0 59829 59400.00000 0 5197285.591 -10438244.277 -22653416.528 10 0 59829 60300.00000 0 7951192.542 -10318515.636 -21896292.756 10 0 59829 61200.00000 0 10586922.649 -10396051.502 -20712444.482 10 0 59829 62100.00000 0 13039834.440 -10649893.506 -19124950.488 10 0 59829 63000.00000 0 15251545.844 -11048328.210 -17164776.493 10 0 59829 63900.00000 0 17172148.048 -11550339.501 -14870164.846 10 0 59829 64800.00000 0 18762070.361 -12107471.016 -12285879.777 10 0 59829 65700.00000 0 19993518.386 -12666018.671 -9462323.565 10 0 59829 66600.00000 0 20851425.961 -13169459.148 -6454541.777 10 0 59829 67500.00000 0 21333882.162 -13561010.197 -3321138.051 10 0 59829 68400.00000 0 21452017.075 -13786213.052 -123120.720 10 0 59829 69300.00000 0 21229353.095 -13795426.586 3077294.924 10 0 59829 70200.00000 0 20700651.247 -13546126.854 6217904.330 10 0 59829 71100.00000 0 19910303.306 -13004914.330 9237726.752 10 0 59829 72000.00000 0 18910339.469 -12149143.988 12078189.455 10 0 59829 72900.00000 0 17758137.169 -10968109.624 14684259.908 10 0 59829 73800.00000 0 16513928.626 -9463732.953 17005504.323 10 0 59829 74700.00000 0 15238212.552 -7650729.021 18997052.695 10 0 59829 75600.00000 0 13989178.688 -5556241.362 20620452.845 10 0 59829 76500.00000 0 12820252.570 -3218962.316 21844398.395 10 0 59829 77400.00000 0 11777862.306 -687775.110 22645318.184 10 0 59829 78300.00000 0 10899519.315 1980026.316 23007817.346 10 0 59829 79200.00000 0 10212291.669 4720866.800 22924963.026 10 0 59829 80100.00000 0 9731732.181 7467281.692 22398410.304 10 0 59829 81000.00000 0 9461304.632 10150473.425 21438366.668 10 0 59829 81900.00000 0 9392331.031 12702928.955 20063395.923 10 0 59829 82800.00000 0 9504461.485 15060991.502 18300065.104 10 0 59829 83700.00000 0 9766646.914 17167281.911 16182440.449 10 0 59829 84600.00000 0 10138574.159 18972870.795 13751441.084 10 0 59829 85500.00000 0 10572503.968 20439112.437 11054061.582 10 0 59830 0.00000 0 11015435.493 21539064.902 8142477.232 10 0 59830 900.00000 0 11411507.413 22258438.066 5073046.263 10 0 59830 1800.00000 0 11704534.703 22596028.463 1905231.133 10 0 59830 2700.00000 0 11840575.337 22563624.312 -1299546.503 10 0 59830 3600.00000 0 11770417.987 22185382.466 -4479091.716 10 0 59830 4500.00000 0 11451885.396 21496703.235 -7571641.880 10 0 59830 5400.00000 0 10851854.992 20542649.483 -10517068.218 10 0 59830 6300.00000 0 9947909.810 19375975.769 -13258049.654 10 0 59830 7200.00000 0 8729548.026 18054850.013 -15741195.440 10 0 59830 8100.00000 0 7198897.725 16640363.410 -17918094.019 10 0 59830 9000.00000 0 5370904.293 15193933.483 -19746266.865 10 0 59830 9900.00000 0 3272980.103 13774710.017 -21190007.741 10 0 59830 10800.00000 0 944128.856 12437093.568 -22221090.258 10 0 59830 11700.00000 0 -1566420.726 11228471.679 -22819329.095 10 0 59830 12600.00000 0 -4201016.199 10187268.765 -22972983.213 10 0 59830 13500.00000 0 -6895743.513 9341392.321 -22678992.590 10 0 59830 14400.00000 0 -9582860.327 8707141.280 -21943043.327 10 0 59830 15300.00000 0 -12193399.059 8288622.656 -20779459.460 10 0 59830 16200.00000 0 -14659830.972 8077700.889 -19210923.334 10 0 59830 17100.00000 0 -16918679.780 8054481.527 -17268029.917 10 0 59830 18000.00000 0 -18912975.125 8188307.995 -14988683.891 10 0 59830 18900.00000 0 -20594443.144 8439228.209 -12417351.658 10 0 59830 19800.00000 0 -21925342.415 8759867.603 -9604183.425 10 0 59830 20700.00000 0 -22879868.590 9097627.807 -6604023.439 10 0 59830 21600.00000 0 -23445069.603 9397116.226 -3475328.670 10 0 59830 22500.00000 0 -23621234.168 9602702.103 -279018.226 10 0 59830 23400.00000 0 -23421738.814 9661089.421 2922722.815 10 0 59830 24300.00000 0 -22872361.773 9523796.600 6067660.734 10 0 59830 25200.00000 0 -22010094.614 9149437.273 9094727.078 10 0 59830 26100.00000 0 -20881503.623 8505705.386 11945204.861 10 0 59830 27000.00000 0 -19540711.614 7570980.733 14563863.844 10 0 59830 27900.00000 0 -18047086.370 6335487.487 16900023.183 10 0 59830 28800.00000 0 -16462733.647 4801957.379 18908521.471 10 0 59830 29700.00000 0 -14849900.091 2985770.086 20550576.570 10 0 59830 30600.00000 0 -13268394.483 914565.140 21794520.064 10 0 59830 31500.00000 0 -11773134.236 -1372658.383 22616393.653 10 0 59830 32400.00000 0 -10411918.235 -3826917.285 23000397.651 10 0 59830 33300.00000 0 -9223517.278 -6391038.362 22939184.368 10 0 59830 34200.00000 0 -8236159.971 -9001797.836 22433991.854 10 0 59830 35100.00000 0 -7466475.467 -11592318.891 21494616.187 10 0 59830 36000.00000 0 -6918935.630 -14094629.726 20139223.086 10 0 59830 36900.00000 0 -6585818.809 -16442277.874 18394002.276 10 0 59830 37800.00000 0 -6447696.025 -18572894.249 16292670.557 10 0 59830 38700.00000 0 -6474419.021 -20430602.158 13875832.100 10 0 59830 39600.00000 0 -6626568.997 -21968172.402 11190207.024 10 0 59830 40500.00000 0 -6857305.743 -23148835.721 8287741.707 10 0 59830 41400.00000 0 -7114540.098 -23947677.418 5224616.583 10 0 59830 42300.00000 0 -7343338.993 -24352555.834 2060169.425 10 0 59830 43200.00000 0 -7488462.127 -24364505.809 -1144246.044 10 0 59830 44100.00000 0 -7496923.384 -23997609.382 -4326444.821 10 0 59830 45000.00000 0 -7320468.540 -23278338.165 -7424615.782 10 0 59830 45900.00000 0 -6917863.718 -22244393.934 -10378523.965 10 0 59830 46800.00000 0 -6256896.597 -20943095.160 -13130686.261 10 0 59830 47700.00000 0 -5316004.066 -19429376.484 -15627497.021 10 0 59830 48600.00000 0 -4085455.453 -17763484.744 -17820280.935 10 0 59830 49500.00000 0 -2568039.018 -16008468.117 -19666251.877 10 0 59830 50400.00000 0 -779220.340 -14227563.991 -21129358.085 10 0 59830 51300.00000 0 1253236.485 -12481595.633 -22180996.419 10 0 59830 52200.00000 0 3490171.191 -10826487.427 -22800580.945 10 0 59830 53100.00000 0 5882417.177 -9311003.624 -22975954.032 10 0 59830 54000.00000 0 8372622.113 -7974806.033 -22703631.321 10 0 59830 54900.00000 0 10897424.105 -6846912.561 -21988875.266 10 0 59830 55800.00000 0 13389892.857 -5944621.527 -20845595.367 10 0 59830 56700.00000 0 15782133.893 -5272946.730 -19296076.812 10 0 59830 57600.00000 0 18007946.754 -4824586.475 -17370542.696 10 0 59830 58500.00000 0 20005425.485 -4580426.943 -15106558.511 10 0 59830 59400.00000 0 21719392.192 -4510557.373 -12548290.877 10 0 59830 60300.00000 0 23103561.393 -4575752.605 -9745635.561 10 0 59830 61200.00000 0 24122344.311 -4729358.546 -6753232.696 10 0 59830 62100.00000 0 24752217.698 -4919498.928 -3629389.455 10 0 59830 63000.00000 0 24982600.429 -5091508.058 -434932.318 10 0 59830 63900.00000 0 24816202.117 -5190484.891 2767987.391 10 0 59830 64800.00000 0 24268830.611 -5163858.816 5917110.335 10 0 59830 65700.00000 0 23368668.199 -4963857.475 8951283.777 10 0 59830 66600.00000 0 22155048.765 -4549771.594 11811649.652 10 0 59830 67500.00000 0 20676789.028 -3889920.825 14442782.861 10 0 59830 68400.00000 0 18990145.366 -2963237.745 16793757.948 10 0 59830 69300.00000 0 17156482.930 -1760403.625 18819124.112 10 0 59830 70200.00000 0 15239755.161 -284488.606 20479770.824 10 0 59830 71100.00000 0 13303898.934 1448930.216 21743668.735 10 0 59830 72000.00000 0 11410253.466 3412177.586 22586473.078 10 0 59830 72900.00000 0 9615109.340 5566398.847 22991979.576 10 0 59830 73800.00000 0 7967488.108 7862951.006 22952425.503 10 0 59830 74700.00000 0 6507243.110 10245209.099 22468631.255 10 0 59830 75600.00000 0 5263558.577 12650714.202 21549980.486 10 0 59830 76500.00000 0 4253907.684 15013575.546 20214239.455 10 0 59830 77400.00000 0 3483511.486 17267028.738 18487218.899 10 0 59830 78300.00000 0 2945320.122 19346045.749 16402284.250 10 0 59830 79200.00000 0 2620516.375 21189889.879 13999722.602 10 0 59830 80100.00000 0 2479520.322 22744510.763 11325977.351 10 0 59830 81000.00000 0 2483453.055 23964680.679 8432763.865 10 0 59830 81900.00000 0 2585998.445 24815783.539 5376081.809 10 0 59830 82800.00000 0 2735585.144 25275181.771 2215142.055 10 0 59830 83700.00000 0 2877797.365 25333103.434 -988772.092 10 0 59830 84600.00000 0 2957912.974 24993011.531 -4173487.982 10 0 59830 85500.00000 0 2923461.639 24271438.827 -7277148.330 10 0 59831 0.00000 0 2726694.432 23197293.944 -10239413.903 10 0 59831 900.00000 0 2326859.325 21810665.912 -13002642.100 10 0 59831 1800.00000 0 1692185.302 20161177.757 -15513013.884 10 0 59831 2700.00000 0 801488.982 18305955.422 -17721591.777 10 0 59831 3600.00000 0 -354665.989 16307298.031 -19585283.458 10 0 59831 4500.00000 0 -1773308.102 14230146.499 -21067692.873 10 0 59831 5400.00000 0 -3438925.896 12139456.758 -22139841.193 10 0 59831 6300.00000 0 -5323872.495 10097587.947 -22780742.767 10 0 59831 7200.00000 0 -7389291.696 8161815.479 -22977824.064 10 0 59831 8100.00000 0 -9586528.442 6382073.610 -22727176.835 10 0 59831 9000.00000 0 -11858965.759 4799022.391 -22033640.011 10 0 59831 9900.00000 0 -14144211.859 3442520.245 -20910708.327 10 0 59831 10800.00000 0 -16376546.146 2330566.027 -19380269.197 10 0 59831 11700.00000 0 -18489521.566 1468754.431 -17472172.833 10 0 59831 12600.00000 0 -20418613.862 850266.759 -15223644.175 10 0 59831 13500.00000 0 -22103806.178 456396.077 -12678548.394 10 0 59831 14400.00000 0 -23492000.082 257582.966 -9886524.902 10 0 59831 15300.00000 0 -24539151.397 214916.245 -6902007.623 10 0 59831 16200.00000 0 -25212041.011 282033.168 -3783151.680 10 0 59831 17100.00000 0 -25489606.527 407336.608 -590688.540 10 0 59831 18000.00000 0 -25363779.376 536433.445 2613266.733 10 0 59831 18900.00000 0 -24839793.262 614689.169 5766431.805 10 0 59831 19800.00000 0 -23935952.329 589789.172 8807572.374 10 0 59831 20700.00000 0 -22682870.346 414197.437 11677692.072 10 0 59831 21600.00000 0 -21122214.459 47408.152 14321173.696 10 0 59831 22500.00000 0 -19305007.604 -542104.896 16686849.841 10 0 59831 23400.00000 0 -17289561.845 -1375323.073 18728982.775 10 0 59831 24300.00000 0 -15139129.712 -2461567.240 20408135.746 10 0 59831 25200.00000 0 -12919371.698 -3797878.063 21691920.259 10 0 59831 26100.00000 0 -10695745.066 -5368917.892 22555606.423 10 0 59831 27000.00000 0 -8530921.621 -7147398.200 22982586.232 10 0 59831 27900.00000 0 -6482340.328 -9095015.059 22964682.314 10 0 59831 28800.00000 0 -4599994.681 -11163854.253 22502297.340 10 0 59831 29700.00000 0 -2924544.763 -13298208.662 21604402.050 10 0 59831 30600.00000 0 -1485830.421 -15436733.752 20288362.372 10 0 59831 31500.00000 0 -301845.642 -17514853.169 18579608.840 10 0 59831 32400.00000 0 621784.662 -19467316.129 16511154.001 10 0 59831 33300.00000 0 1291804.774 -21230801.932 14122966.084 10 0 59831 34200.00000 0 1726805.734 -22746464.485 11461209.750 10 0 59831 35100.00000 0 1956202.472 -23962311.873 8577367.154 10 0 59831 36000.00000 0 2018753.267 -24835322.206 5527254.858 10 0 59831 36900.00000 0 1960683.379 -25333207.360 2369954.397 10 0 59831 37800.00000 0 1833491.440 -25435750.335 -833323.823 10 0 59831 38700.00000 0 1691530.777 -25135659.266 -4020422.027 10 0 59831 39600.00000 0 1589467.664 -24438900.981 -7129439.301 10 0 59831 40500.00000 0 1579724.183 -23364498.604 -10099935.203 10 0 59831 41400.00000 0 1710014.460 -21943800.110 -12874109.087 10 0 59831 42300.00000 0 2021079.559 -20219247.028 -15397931.545 10 0 59831 43200.00000 0 2544718.308 -18242693.681 -17622205.282 10 0 59831 44100.00000 0 3302199.126 -16073346.407 -19503533.933 10 0 59831 45000.00000 0 4303121.961 -13775408.534 -21005179.023 10 0 59831 45900.00000 0 5544780.554 -11415529.414 -22097787.573 10 0 59831 46800.00000 0 7012054.081 -9060164.252 -22759975.351 10 0 59831 47700.00000 0 8677834.702 -6772955.467 -22978753.631 10 0 59831 48600.00000 0 10503974.770 -4612245.407 -22749790.566 10 0 59831 49500.00000 0 12442715.277 -2628824.697 -22077501.459 10 0 59831 50400.00000 0 14438536.410 -864010.721 -20974965.803 10 0 59831 51300.00000 0 16430353.019 651863.480 -19463672.399 10 0 59831 52200.00000 0 18353962.911 1900486.986 -17573097.403 10 0 59831 53100.00000 0 20144644.815 2876092.662 -15340123.668 10 0 59831 54000.00000 0 21739796.404 3585442.069 -12808313.022 10 0 59831 54900.00000 0 23081500.882 4047275.880 -10027046.250 10 0 59831 55800.00000 0 24118913.599 4291254.866 -7050548.446 10 0 59831 56700.00000 0 24810367.884 4356438.361 -3936819.740 10 0 59831 57600.00000 0 25125111.371 4289366.731 -746493.426 10 0 59831 58500.00000 0 25044599.946 4141831.137 2458354.991 10 0 59831 59400.00000 0 24563295.468 3968426.984 5615423.487 10 0 59831 60300.00000 0 23688934.692 3823996.247 8663399.391 10 0 59831 61200.00000 0 22442259.268 3761068.116 11543151.025 10 0 59831 62100.00000 0 20856219.517 3827406.941 14198871.797 10 0 59831 63000.00000 0 18974686.627 4063771.308 16579154.717 10 0 59831 63900.00000 0 16850728.313 4501978.625 18637977.122 10 0 59831 64800.00000 0 14544520.722 5163356.274 20335577.641 10 0 59831 65700.00000 0 12120983.912 6057643.844 21639209.831 10 0 59831 66600.00000 0 9647239.164 7182391.889 22523759.462 10 0 59831 67500.00000 0 7189992.976 8522881.988 22972215.158 10 0 59831 68400.00000 0 4812955.047 10052571.338 22975984.810 10 0 59831 69300.00000 0 2574395.716 11734043.593 22535052.830 10 0 59831 70200.00000 0 524942.190 13520426.992 21657976.048 10 0 59831 71100.00000 0 -1294297.096 15357221.842 20361718.640 10 0 59831 72000.00000 0 -2853204.019 17184462.602 18671329.131 10 0 59831 72900.00000 0 -4133658.776 18939126.124 16619465.054 10 0 59831 73800.00000 0 -5130043.814 20557687.346 14245773.394 10 0 59831 74700.00000 0 -5849223.496 21978717.244 11596137.531 10 0 59831 75600.00000 0 -6310000.921 23145415.813 8721803.768 10 0 59831 76500.00000 0 -6542074.740 24007974.887 5678402.876 10 0 59831 77400.00000 0 -6584539.521 24525672.130 2524884.381 10 0 59831 78300.00000 0 -6483992.428 24668608.108 -677616.850 10 0 59831 79200.00000 0 -6292325.591 24419012.750 -3866960.469 10 0 59831 80100.00000 0 -6064297.076 23772065.017 -6981204.363 10 0 59831 81000.00000 0 -5854983.064 22736189.784 -9959808.883 10 0 59831 81900.00000 0 -5717219.314 21332817.594 -12744817.929 10 0 59831 82800.00000 0 -5699140.824 19595615.612 -15281993.267 10 0 59831 83700.00000 0 -5841924.860 17569220.333 -17521879.357 10 0 59831 84600.00000 0 -6177834.274 15307523.713 -19420777.122 10 0 59831 85500.00000 0 -6728645.482 12871583.478 -20941606.771 99